SDM1216 ULLI-URSS

Flight info

Callsign SDM1216
Flight time N/A
Altitude 35000
Route SUGIN1A/28R SUGIN T873 TOKNU L4 EKTUT N72 GIGDO/K0874F370 N72 UMSIS N166 ADNET/K0857F380 DCT MOBIT MOBIT1K
Aircraft B739/M-SDE2E3FGHIRWXY/LB1

Departure

Time N/A
Airport Pulkovo Airport (ULLI)

Arrival

Time 2026-04-30 19:23
Airport Sochi International Airport (URSS)
Time Latitude Longitude Altitude Speed Heading
2026-04-30 17:39 53.82752 38.46114 35208 ft 470 kts 167°
2026-04-30 17:42 53.50815 38.57394 35205 ft 469 kts 170°
2026-04-30 17:43 53.34787 38.62626 35201 ft 469 kts 170°
2026-04-30 17:44 53.15541 38.68854 35206 ft 470 kts 170°
2026-04-30 17:47 52.86560 38.78124 35204 ft 472 kts 171°
2026-04-30 17:48 52.64004 38.85252 35205 ft 472 kts 171°
2026-04-30 17:50 52.38356 38.94117 35210 ft 473 kts 158°
2026-04-30 17:51 52.30847 39.01667 35203 ft 475 kts 147°
2026-04-30 17:52 52.22620 39.10696 35199 ft 475 kts 148°
2026-04-30 17:54 51.97670 39.37059 35208 ft 476 kts 149°
2026-04-30 17:56 51.75389 39.60419 35860 ft 475 kts 149°
2026-04-30 17:57 51.66344 39.66648 36280 ft 473 kts 164°
2026-04-30 17:58 51.56970 39.71548 36790 ft 472 kts 164°
2026-04-30 17:59 51.44507 39.78257 37182 ft 472 kts 163°
2026-04-30 18:00 51.32063 39.84954 37198 ft 472 kts 163°
2026-04-30 18:01 51.16456 39.93292 37197 ft 473 kts 164°
2026-04-30 18:02 50.97720 40.03181 37204 ft 472 kts 164°
2026-04-30 18:04 50.79037 40.12948 37211 ft 470 kts 164°
2026-04-30 18:06 50.54227 40.25806 37207 ft 470 kts 165°
2026-04-30 18:08 50.32478 40.36962 37206 ft 470 kts 165°
2026-04-30 18:10 50.07619 40.49585 37220 ft 469 kts 165°
2026-04-30 18:11 49.85881 40.60529 37210 ft 469 kts 165°
2026-04-30 18:13 49.70367 40.68282 37208 ft 468 kts 166°
2026-04-30 18:13 49.61999 40.71350 37203 ft 460 kts 182°
2026-04-30 18:14 49.54571 40.71101 37203 ft 457 kts 186°
2026-04-30 18:15 49.35486 40.70438 37206 ft 457 kts 185°
2026-04-30 18:16 49.22758 40.70107 37206 ft 457 kts 185°
2026-04-30 18:17 49.16399 40.69942 37206 ft 457 kts 185°
2026-04-30 18:18 49.06877 40.69693 37202 ft 456 kts 185°
2026-04-30 18:18 49.00538 40.69527 37206 ft 455 kts 185°
2026-04-30 18:19 48.94208 40.69363 37204 ft 455 kts 185°
2026-04-30 18:19 48.87988 40.68354 37219 ft 447 kts 195°
2026-04-30 18:20 48.81888 40.66494 37207 ft 446 kts 196°
2026-04-30 18:20 48.75796 40.64651 37202 ft 446 kts 195°
2026-04-30 18:21 48.69697 40.62863 37204 ft 446 kts 195°
2026-04-30 18:21 48.63600 40.61101 37202 ft 446 kts 195°
2026-04-30 18:22 48.57540 40.59353 37201 ft 446 kts 195°
2026-04-30 18:22 48.48386 40.56716 37206 ft 447 kts 195°
2026-04-30 18:23 48.42285 40.54968 37199 ft 447 kts 195°
2026-04-30 18:23 48.36173 40.53230 37205 ft 447 kts 195°
2026-04-30 18:24 48.27019 40.50634 37199 ft 446 kts 196°
2026-04-30 18:25 48.20922 40.48909 37206 ft 446 kts 196°
2026-04-30 18:25 48.11784 40.46331 37200 ft 446 kts 196°
2026-04-30 18:26 48.02646 40.43762 37203 ft 445 kts 196°
2026-04-30 18:27 47.93531 40.41209 37197 ft 444 kts 196°
2026-04-30 18:28 47.84421 40.38665 37202 ft 443 kts 196°
2026-04-30 18:28 47.75107 40.38010 37210 ft 455 kts 182°
2026-04-30 18:29 47.62525 40.39520 37197 ft 455 kts 182°
2026-04-30 18:30 47.49854 40.40878 37190 ft 455 kts 182°
2026-04-30 18:31 47.40424 40.41871 37199 ft 455 kts 182°
2026-04-30 18:32 47.30960 40.42867 37192 ft 455 kts 182°
2026-04-30 18:33 47.21495 40.43860 37199 ft 455 kts 182°
2026-04-30 18:33 47.12037 40.44835 37196 ft 453 kts 184°
2026-04-30 18:34 47.03634 40.45104 37191 ft 450 kts 186°
2026-04-30 18:35 46.97373 40.45169 37193 ft 450 kts 186°
2026-04-30 18:35 46.91114 40.45275 37195 ft 449 kts 186°
2026-04-30 18:36 46.81788 40.45478 37195 ft 449 kts 186°
2026-04-30 18:37 46.72429 40.45686 37188 ft 448 kts 186°
2026-04-30 18:37 46.66196 40.45824 37195 ft 447 kts 186°
2026-04-30 18:38 46.59978 40.45959 37194 ft 447 kts 186°
2026-04-30 18:38 46.53769 40.46094 37196 ft 446 kts 186°
2026-04-30 18:39 46.47566 40.46229 37192 ft 446 kts 187°
2026-04-30 18:39 46.41374 40.46363 37191 ft 445 kts 187°
2026-04-30 18:40 46.35202 40.46322 37185 ft 438 kts 193°
2026-04-30 18:40 46.29350 40.44479 37199 ft 428 kts 202°
2026-04-30 18:41 46.23610 40.42215 37190 ft 428 kts 202°
2026-04-30 18:41 46.17858 40.39994 37192 ft 428 kts 202°
2026-04-30 18:42 46.12099 40.37807 37185 ft 428 kts 202°
2026-04-30 18:42 46.03449 40.34544 37191 ft 428 kts 202°
2026-04-30 18:45 45.72159 40.21568 37200 ft 416 kts 213°
2026-04-30 18:46 45.66971 40.17888 37187 ft 416 kts 213°
2026-04-30 18:46 45.61776 40.14253 37188 ft 416 kts 213°
2026-04-30 18:47 45.56566 40.10645 37186 ft 416 kts 212°
2026-04-30 18:47 45.51356 40.07048 37188 ft 416 kts 212°
2026-04-30 18:48 45.46141 40.03459 37185 ft 416 kts 212°
2026-04-30 18:48 45.40541 40.00934 37183 ft 432 kts 196°
2026-04-30 18:49 45.34547 39.99936 37179 ft 434 kts 194°
2026-04-30 18:49 45.28540 39.98999 37179 ft 434 kts 194°
2026-04-30 18:50 45.22545 39.98021 37183 ft 433 kts 195°
2026-04-30 18:50 45.16607 39.97030 37177 ft 433 kts 195°
2026-04-30 18:51 45.10591 39.96024 37171 ft 432 kts 195°
2026-04-30 18:51 45.04663 39.95036 37167 ft 431 kts 195°
2026-04-30 18:52 44.98703 39.94045 37180 ft 431 kts 195°
2026-04-30 18:52 44.92745 39.93057 37181 ft 431 kts 195°
2026-04-30 18:53 44.86789 39.92077 37171 ft 431 kts 195°
2026-04-30 18:53 44.80830 39.91107 37169 ft 431 kts 195°
2026-04-30 18:54 44.74870 39.90138 37162 ft 431 kts 195°
2026-04-30 18:54 44.68905 39.89169 37159 ft 431 kts 195°
2026-04-30 18:55 44.62943 39.88202 37166 ft 432 kts 195°
2026-04-30 18:55 44.53986 39.86752 37149 ft 433 kts 195°
2026-04-30 18:56 44.44997 39.85302 37144 ft 434 kts 195°
2026-04-30 18:57 44.35903 39.84633 37152 ft 448 kts 181°
2026-04-30 18:57 44.29746 39.86669 37157 ft 459 kts 172°
2026-04-30 18:58 44.23716 39.89186 37123 ft 438 kts 172°
2026-04-30 18:58 44.20856 39.90378 37115 ft 421 kts 173°
2026-04-30 18:58 44.18092 39.91509 37144 ft 408 kts 173°
2026-04-30 18:59 44.12604 39.93680 37158 ft 413 kts 173°
2026-04-30 19:00 44.04217 39.96971 36881 ft 414 kts 173°
2026-04-30 19:00 44.01461 39.98065 36444 ft 410 kts 174°
2026-04-30 19:00 43.95995 40.00220 35336 ft 407 kts 174°
2026-04-30 19:01 43.90594 40.02348 34535 ft 398 kts 175°
2026-04-30 19:01 43.87943 40.03391 34127 ft 394 kts 175°
2026-04-30 19:02 43.82710 40.05440 33103 ft 389 kts 175°
2026-04-30 19:02 43.77525 40.07465 32123 ft 385 kts 174°
2026-04-30 19:03 43.72394 40.09470 31255 ft 381 kts 174°
2026-04-30 19:03 43.67448 40.09928 29831 ft 348 kts 205°
2026-04-30 19:04 43.63048 40.07302 27941 ft 344 kts 213°
2026-04-30 19:04 43.58752 40.04544 26641 ft 336 kts 212°
2026-04-30 19:05 43.54529 40.01891 25392 ft 331 kts 211°
2026-04-30 19:05 43.50373 39.99292 24202 ft 326 kts 211°
2026-04-30 19:06 43.46272 39.96731 22900 ft 320 kts 211°
2026-04-30 19:06 43.44224 39.95554 22261 ft 319 kts 206°
2026-04-30 19:06 43.40012 39.93628 20821 ft 320 kts 204°
2026-04-30 19:07 43.35617 39.91682 18449 ft 345 kts 203°
2026-04-30 19:07 43.33313 39.90651 17357 ft 349 kts 203°
2026-04-30 19:08 43.28767 39.88611 15847 ft 338 kts 203°
2026-04-30 19:08 43.24422 39.86652 14872 ft 317 kts 203°
2026-04-30 19:08 43.22338 39.85707 14193 ft 315 kts 202°
2026-04-30 19:09 43.18272 39.83863 13145 ft 300 kts 202°
2026-04-30 19:09 43.16296 39.82966 12477 ft 299 kts 202°
2026-04-30 19:09 43.14326 39.82073 11830 ft 297 kts 202°
2026-04-30 19:10 43.10429 39.80312 11125 ft 294 kts 201°
2026-04-30 19:10 43.06700 39.77671 10913 ft 305 kts 230°
2026-04-30 19:11 43.05621 39.75251 10897 ft 295 kts 251°
2026-04-30 19:11 43.05575 39.69803 10200 ft 286 kts 284°
2026-04-30 19:11 43.06163 39.67262 9920 ft 274 kts 286°
2026-04-30 19:12 43.06739 39.64849 9566 ft 269 kts 285°
2026-04-30 19:12 43.07306 39.62427 9261 ft 266 kts 285°
2026-04-30 19:12 43.07863 39.60020 8910 ft 265 kts 285°
2026-04-30 19:13 43.08965 39.55249 8275 ft 262 kts 285°
2026-04-30 19:13 43.10104 39.50514 7679 ft 263 kts 297°
2026-04-30 19:13 43.11352 39.48772 7692 ft 260 kts 329°
2026-04-30 19:14 43.13098 39.48016 7717 ft 271 kts 354°
2026-04-30 19:14 43.14984 39.48319 7725 ft 279 kts 20°
2026-04-30 19:14 43.16605 39.49749 7716 ft 279 kts 48°
2026-04-30 19:14 43.17652 39.51974 7563 ft 283 kts 65°
2026-04-30 19:15 43.18467 39.54474 7192 ft 288 kts 68°
2026-04-30 19:15 43.19959 39.59413 6488 ft 272 kts 69°
2026-04-30 19:15 43.20679 39.61772 6148 ft 265 kts 69°
2026-04-30 19:16 43.21385 39.64065 5821 ft 258 kts 69°
2026-04-30 19:16 43.22086 39.66324 5505 ft 256 kts 69°
2026-04-30 19:16 43.23470 39.70768 4582 ft 255 kts 69°
2026-04-30 19:17 43.24166 39.72992 4111 ft 253 kts 69°
2026-04-30 19:17 43.25536 39.77367 3105 ft 247 kts 68°
2026-04-30 19:17 43.26214 39.79537 2467 ft 248 kts 68°
2026-04-30 19:18 43.27250 39.82257 2060 ft 231 kts 45°
2026-04-30 19:18 43.29362 39.83869 1982 ft 190 kts 27°
2026-04-30 19:18 43.30479 39.84679 1983 ft 177 kts 29°
2026-04-30 19:19 43.31525 39.85467 1985 ft 165 kts 29°
2026-04-30 19:19 43.32489 39.86196 2010 ft 152 kts 30°
2026-04-30 19:19 43.34296 39.87561 1985 ft 150 kts 29°
2026-04-30 19:20 43.35212 39.88253 1844 ft 149 kts 29°
2026-04-30 19:20 43.35810 39.88705 1714 ft 146 kts 29°
2026-04-30 19:20 43.37540 39.90010 1345 ft 141 kts 28°
2026-04-30 19:21 43.38401 39.90660 1158 ft 141 kts 28°
2026-04-30 19:21 43.40104 39.91955 788 ft 139 kts 28°
2026-04-30 19:22 43.41797 39.93229 433 ft 139 kts 28°
2026-04-30 19:22 43.44254 39.95079 75 ft 113 kts 28°
2026-04-30 19:23 43.45279 39.95839 95 ft 6 kts 359°
2026-04-30 19:24 43.45292 39.95785 93 ft 4 kts 234°
2026-04-30 19:24 43.45266 39.95731 91 ft 9 kts 239°
2026-04-30 19:24 43.45247 39.95688 92 ft 1 kts 239°
2026-04-30 19:25 43.45194 39.95596 95 ft 11 kts 210°
2026-04-30 19:26 43.45056 39.95458 92 ft 13 kts 244°
2026-04-30 19:26 43.44976 39.95225 88 ft 15 kts 245°
2026-04-30 19:26 43.44934 39.95106 83 ft 12 kts 242°
2026-04-30 19:27 43.44853 39.94875 67 ft 14 kts 244°
2026-04-30 19:27 43.44769 39.94627 68 ft 14 kts 245°
2026-04-30 19:28 43.44742 39.94549 66 ft 4 kts 244°
2026-04-30 19:28 43.44759 39.94490 73 ft 4 kts 337°
2026-04-30 19:29 43.44809 39.94459 69 ft 4 kts 335°
2026-04-30 19:29 43.44827 39.94447 74 ft 3 kts 335°
2026-04-30 19:30 43.44836 39.94441 71 ft 0 kts 335°